Location: Unspecified
(0.0000°N, 0.0000°E)
Time: 05:32:09
(UTC+00:00)

S-56A Canister/Altair - Pass Details

Date: 30 May 2024
Orbit: 637 x 2489 km, 38.9° (Epoch: 21 June)

Event Time Altitude Azimuth Distance (km) Brightness Sun altitude
Rises 02:24:01 0° 254° (WSW) 5,707 - -48.2°
Reaches altitude 10° 02:28:06 10° 263° (W) 4,883 - -47.3°
Exits shadow 02:40:19 34° 321° (NW) 3,541 10.7 -44.7°
Maximum altitude 02:40:27 34° 322° (NW) 3,541 10.7 -44.7°
Drops below altitude 10° 02:53:04 10° 22° (NNE) 4,935 12.1 -42.0°
Sets 02:57:18 0° 31° (NNE) 5,768 12.7 -41.1°
